Location: Unspecified
(0.0000°N, 0.0000°E)
Time: 01:19:41
(UTC+00:00)

deb Kosmos-1275 - Pass Details

Date: 12 March 2026
Orbit: 936 x 1103 km, 82.9° (Epoch: 14 April)

Event Time Altitude Azimuth Distance (km) Brightness Sun altitude
Rises 18:22:48 0° 354° (N) 3,902 ? -3.3°
Reaches altitude 10° 18:25:25 10° 353° (N) 2,939 ? -3.9°
Maximum altitude 18:32:15 78° 268° (W) 1,099 ? -5.6°
Drops below altitude 10° 18:38:53 10° 181° (S) 2,862 ? -7.3°
Sets 18:41:25 0° 180° (S) 3,794 ? -7.9°
